Binghamton, NY

2:52 PM EST on November 11, 2019 (GMT -0500)
Binghamton Regional-Link

Weather History for KBGM - October, 2019

Change the Weather History Date:

Tuesday, October 22, 2019

  Actual Average Record
Temperature  
Mean Temperature 53 °F 46 °F  
Max Temperature 56 °F 55 °F 81 °F (1979)
Min Temperature 49 °F 38 °F 26 °F (1969)
Degree Days  
Heating Degree Days 12 19  
Month to date heating degree days 329 334  
Since 1 July heating degree days 502 591  
Cooling Degree Days 0 0  
Month to date cooling degree days 5 0  
Year to date cooling degree days 389 379  
Growing Degree Days 2 (Base 50)    
Moisture  
Dew Point 49 °F    
Average Humidity 86    
Maximum Humidity 100    
Minimum Humidity 71    
Precipitation  
Precipitation 0.70 in 0.10 in 1.34 in (1988)
Month to date precipitation 4.98 2.39  
Year to date precipitation 35.64 32.23  
Snow  
Snow 0.00 in 0.00 in 4.70 in (1988)
Month to date snowfall 0.0 0.4  
Since 1 July snowfall 0.0 0.4  
Since 1 September snowfall 0.0 0.4  
Snow Depth 0.00 in    
Sea Level Pressure  
Sea Level Pressure 29.88 in    
Wind  
Wind Speed 11 mph (South)    
Max Wind Speed 22 mph    
Max Gust Speed 31 mph    
Visibility 6 miles    
Events Fog , Rain    
T = Trace of Precipitation, MM = Missing Value Source: NWS Daily Summary

Daily Weather History Graph

Daily Weather History Graph

Search for Another Location

Airport or City:

Astronomy

Oct. 22, 2019 Rise Set
Actual Time 7:24 AM EDT 6:11 PM EDT
Civil Twilight 6:55 AM EDT 6:40 PM EDT
Nautical Twilight 6:23 AM EDT 7:12 PM EDT
Astronomical Twilight 5:50 AM EDT 7:45 PM EDT
Moon 12:22 AM EDT (10/22) 3:27 PM EDT (10/22)
Length of Visible Light 11h 44m
Length of Day
10h 47m
Last Quarter, 37% of the Moon is Illuminated
Oct 22
Last Quarter
Oct 27
New
Nov 4
First Quarter
Nov 12
Full
Nov 19
Last Quarter

Hourly Weather History & Observations

Time (EDT) Temp. Dew Point Humidity Pressure Visibility Wind Dir Wind Speed Gust Speed Precip Events Conditions
12:53 AM 51.1 °F 43.0 °F 74% 30.02 in 10.0 mi SSE 16.1 mph - N/A   Clear
1:33 AM 52.0 °F 43.0 °F 71% 30.02 in 10.0 mi SE 8.1 mph - N/A   Mostly Cloudy
1:53 AM 52.0 °F 43.0 °F 71% 30.03 in 10.0 mi South 12.7 mph 23.0 mph N/A   Partly Cloudy
2:46 AM 52.0 °F 44.1 °F 74% 30.02 in 10.0 mi SSE 11.5 mph 21.9 mph N/A   Mostly Cloudy
2:53 AM 52.0 °F 44.1 °F 74% 30.03 in 10.0 mi SSE 13.8 mph 21.9 mph N/A   Mostly Cloudy
3:53 AM 52.0 °F 46.0 °F 80% 30.00 in 10.0 mi SSE 13.8 mph - N/A   Overcast
5:53 AM 52.0 °F 46.0 °F 80% 29.97 in 10.0 mi SSE 15.0 mph 23.0 mph N/A   Overcast
6:53 AM 52.0 °F 46.0 °F 80% 29.96 in 10.0 mi SSE 13.8 mph 21.9 mph N/A   Overcast
7:02 AM 52.0 °F 46.0 °F 80% 29.95 in 10.0 mi SSE 11.5 mph 23.0 mph N/A   Overcast
7:53 AM 51.1 °F 46.0 °F 83% 29.96 in 10.0 mi SSE 11.5 mph 19.6 mph N/A   Overcast
8:53 AM 51.1 °F 46.9 °F 86% 29.97 in 10.0 mi SSE 13.8 mph - N/A   Overcast
9:53 AM 51.1 °F 45.0 °F 80% 29.95 in 10.0 mi SSE 18.4 mph 28.8 mph N/A   Overcast
10:21 AM 51.1 °F 45.0 °F 80% 29.93 in 10.0 mi SE 20.7 mph 29.9 mph N/A   Overcast
10:33 AM 51.1 °F 46.0 °F 83% 29.94 in 10.0 mi SSE 13.8 mph 24.2 mph N/A   Overcast
10:53 AM 52.0 °F 46.0 °F 80% 29.93 in 10.0 mi SSE 17.3 mph 27.6 mph N/A   Overcast
11:53 AM 52.0 °F 46.9 °F 83% 29.91 in 10.0 mi SSE 18.4 mph 24.2 mph N/A   Overcast
12:31 PM 53.1 °F 48.9 °F 86% 29.89 in 10.0 mi SSE 17.3 mph 26.5 mph N/A   Overcast
12:53 PM 53.1 °F 48.9 °F 86% 29.87 in 10.0 mi SSE 15.0 mph 25.3 mph N/A   Overcast
2:53 PM 54.0 °F 48.9 °F 83% 29.81 in 10.0 mi SSE 17.3 mph 26.5 mph N/A   Overcast
3:53 PM 53.1 °F 50.0 °F 89% 29.81 in 10.0 mi SE 13.8 mph 23.0 mph 0.00 in Rain Light Rain
4:30 PM 52.0 °F 51.1 °F 97% 29.83 in 2.0 mi SSE 10.4 mph - 0.04 in Rain Heavy Rain
4:39 PM 52.0 °F 51.1 °F 97% 29.83 in 1.0 mi SSE 9.2 mph - 0.08 in Rain Rain
4:53 PM 53.1 °F 51.1 °F 93% 29.83 in 2.0 mi SSE 10.4 mph - 0.11 in Rain Rain
5:03 PM 53.1 °F 51.1 °F 93% 29.83 in 2.0 mi SSE 8.1 mph - 0.03 in Rain Rain
5:37 PM 53.1 °F 52.0 °F 96% 29.83 in 1.5 mi SSW 3.5 mph - 0.15 in Rain Heavy Rain
5:53 PM 53.1 °F 52.0 °F 96% 29.84 in 2.0 mi Calm Calm - 0.20 in Rain Rain
6:07 PM 53.1 °F 52.0 °F 96% 29.83 in 1.8 mi South 3.5 mph - 0.03 in Rain Light Rain
6:16 PM 53.1 °F 52.0 °F 96% 29.82 in 2.0 mi South 3.5 mph - 0.05 in Rain Rain
6:48 PM 51.8 °F 51.8 °F 100% 29.82 in 1.5 mi SE 3.5 mph - 0.13 in Rain Rain
6:53 PM 52.0 °F 52.0 °F 100% 29.83 in 1.5 mi South 4.6 mph - 0.15 in Rain Rain
7:00 PM 52.0 °F 52.0 °F 100% 29.83 in 2.0 mi South 4.6 mph - 0.02 in Rain Rain
7:41 PM 52.0 °F 52.0 °F 100% 29.82 in 1.8 mi WSW 4.6 mph - 0.14 in Rain Rain
7:46 PM 52.0 °F 52.0 °F 100% 29.83 in 2.0 mi SSW 3.5 mph - 0.15 in Rain Rain
7:53 PM 53.1 °F 52.0 °F 96% 29.83 in 6.0 mi South 3.5 mph - 0.15 in Rain Light Rain
8:01 PM 53.1 °F 52.0 °F 96% 29.82 in 7.0 mi South 4.6 mph - 0.02 in Rain Light Rain
8:26 PM 52.0 °F 52.0 °F 100% 29.81 in 1.8 mi SSE 3.5 mph - 0.04 in Rain Light Rain
8:30 PM 52.0 °F 52.0 °F 100% 29.81 in 0.8 mi SSE 4.6 mph - 0.04 in Rain Light Rain
8:41 PM 52.0 °F 52.0 °F 100% 29.81 in 0.5 mi South 3.5 mph - 0.05 in Fog , Rain Light Rain
8:51 PM 51.8 °F 51.8 °F 100% 29.82 in 1.0 mi WSW 4.6 mph - 0.06 in Rain Light Rain
8:53 PM 52.0 °F 52.0 °F 100% 29.83 in 1.5 mi SW 4.6 mph - 0.06 in Rain Light Rain
8:56 PM 52.0 °F 51.1 °F 97% 29.82 in 4.0 mi WSW 6.9 mph - 0.00 in Rain Light Rain
9:03 PM 52.0 °F 51.1 °F 97% 29.82 in 6.0 mi SW 4.6 mph - 0.01 in Rain Light Rain
9:19 PM 52.0 °F 51.1 °F 97% 29.82 in 7.0 mi SSW 3.5 mph - 0.02 in Rain Light Rain
9:53 PM 52.0 °F 51.1 °F 97% 29.83 in 10.0 mi South 3.5 mph - 0.03 in   Overcast
10:32 PM 52.0 °F 51.1 °F 97% 29.82 in 10.0 mi South 3.5 mph - N/A   Overcast
10:53 PM 51.1 °F 51.1 °F 100% 29.83 in 6.0 mi SSW 3.5 mph - N/A   Overcast
11:53 PM 51.1 °F 50.0 °F 96% 29.82 in 10.0 mi SW 6.9 mph - N/A   Partly Cloudy